sat.trackr.live / text

‹ back to catalog

STARLINK-3749

NORAD 52313 · 2022-041BE

PAYLOAD ACTIVE UNKNOWN

§ Identity

Operator
Country
US
Launch date
2022-04-21
Launch site
AFETR
Launch vehicle
Mass (kg)
RCS (m²)

Purposes: comms

External: N2YO · Heavens-Above · Gunter

§ Orbital elements

Epoch: 2026-09-19T14:37:41.238048Z

Period
93.90 min
Inclination
53.1621°
Eccentricity
0.0001301
Mean motion
15.33549709 rev/d
Perigee alt
464.3 km
Apogee alt
466.1 km
Semi-major
6,843.4 km
B*
1.2377e-5
RAAN
286.0098°
Arg perigee
89.8298°
Mean anomaly
270.2854°
Rev number
24,531

§ Raw data

STARLINK-37491 52313U 22041BE  26262.60950507  .00000034  00000+0  12377-4 0  99932 52313  53.1621 286.0098 0001301  89.8298 270.2854 15.33549709245315

JSON: /api/v1/satellites/52313 · /tle

For live sub-satellite position, see the globe view (requires WebGL).

§ Visibility from observer

Set your observer location to see the next 7 days of passes ≥ 10°. The values pass through the URL so the page stays shareable.

No JS? Fill the form by hand. The geolocation button needs JavaScript.